GW7672 Weather Reports


time (UTC)temp
F
wind
direction
speed
knots
gust
knots
rain 1hr
in
rain 24hr
in
rain mn
in
humidity
%
barometer
mb
20260906224001 101 314 1.7 5.2 0.00 0.00 0.00 34 1010.4
20260906223456 101 49 1.7 6.1 0.00 0.00 0.00 33 1010.5
20260906222954 101 60 0.0 3.5 0.00 0.00 0.00 33 1010.6
20260906222450 101 342 3.5 3.5 0.00 0.00 0.00 33 1010.7
20260906221947 102 325 1.7 7.0 0.00 0.00 0.00 33 1010.7
20260906221446 102 334 0.0 3.5 0.00 0.00 0.00 32 1010.8
20260906220942 102 114 1.7 2.6 0.00 0.00 0.00 33 1010.6
20260906220437 102 265 0.9 4.3 0.00 0.00 0.00 34 1010.7
20260906215937 101 30 2.6 7.8 0.00 0.00 0.00 34 1010.8
20260906215436 101 65 3.5 6.1 0.00 0.00 0.00 34 1010.8
20260906214935 101 143 2.6 5.2 0.00 0.00 0.00 33 1010.8
20260906214434 100 8 1.7 3.5 0.00 0.00 0.00 35 1010.8
20260906213933 99 202 0.0 3.5 0.00 0.00 0.00 35 1010.9
20260906213428 101 37 1.7 3.5 0.00 0.00 0.00 35 1010.9
20260906212926 102 357 2.6 4.3 0.00 0.00 0.00 34 1011.0
20260906212421 100 3 0.0 1.7 0.00 0.00 0.00 37 1011.1
20260906211922 100 334 0.9 0.9 0.00 0.00 0.00 36 1011.1
20260906211422 101 61 0.9 2.6 0.00 0.00 0.00 35 1011.4
20260906210917 100 351 1.7 5.2 0.00 0.00 0.00 36 1011.4
20260906210413 100 24 1.7 3.5 0.00 0.00 0.00 35 1011.5
20260906205907 101 30 0.9 4.3 0.00 0.00 0.00 35 1011.6
20260906205403 102 197 0.9 3.5 0.00 0.00 0.00 35 1011.7
20260906204859 102 346 1.7 4.3 0.00 0.00 0.00 34 1011.7
20260906204357 101 0 0.9 7.0 0.00 0.00 0.00 35 1011.8
20260906203857 100 56 1.7 3.5 0.00 0.00 0.00 34 1012.1
20260906203352 100 242 2.6 3.5 0.00 0.00 0.00 36 1011.8
20260906202850 100 246 1.7 3.5 0.00 0.00 0.00 37 1011.9
20260906202349 101 286 1.7 2.6 0.00 0.00 0.00 36 1012.0
20260906201849 102 103 2.6 4.3 0.00 0.00 0.00 35 1012.1
20260906201344 102 97 2.6 3.5 0.00 0.00 0.00 35 1012.0
20260906200839 102 103 3.5 3.5 0.00 0.00 0.00 35 1011.9
20260906200335 101 308 1.7 2.6 0.00 0.00 0.00 38 1012.2
20260906195830 101 260 0.9 5.2 0.00 0.00 0.00 36 1012.1
20260906195326 100 173 1.7 4.3 0.00 0.00 0.00 37 1012.3
20260906194822 100 118 0.9 3.5 0.00 0.00 0.00 37 1012.2
20260906194318 98 336 1.7 1.7 0.00 0.00 0.00 38 1012.4
20260906193812 100 135 3.5 7.0 0.00 0.00 0.00 37 1012.3
20260906193307 99 293 0.0 0.9 0.00 0.00 0.00 38 1012.7
20260906192804 99 230 0.9 3.5 0.00 0.00 0.00 38 1012.5
20260906192306 101 11 1.7 4.3 0.00 0.00 0.00 36 1012.5
20260906191802 101 336 2.6 5.2 0.00 0.00 0.00 37 1012.7
20260906191257 99 331 1.7 2.6 0.00 0.00 0.00 39 1012.7
20260906190752 100 355 3.5 5.2 0.00 0.00 0.00 37 1012.6
20260906190252 99 44 0.0 7.0 0.00 0.00 0.00 37 1012.6
20260906185751 100 82 0.9 7.0 0.00 0.00 0.00 37 1012.6
20260906185250 99 79 1.7 6.1 0.00 0.00 0.00 38 1012.7
20260906184745 98 70 1.7 9.6 0.00 0.00 0.00 39 1012.8
20260906184240 99 357 2.6 4.3 0.00 0.00 0.00 39 1012.8
20260906183736 99 242 1.7 1.7 0.00 0.00 0.00 39 1012.9
20260906183232 99 106 0.9 5.2 0.00 0.00 0.00 39 1013.1
20260906182732 100 354 2.6 4.3 0.00 0.00 0.00 38 1013.1
20260906182228 99 88 1.7 4.3 0.00 0.00 0.00 39 1013.2
20260906181723 98 297 0.0 3.5 0.00 0.00 0.00 41 1013.2
20260906181220 99 187 1.7 5.2 0.00 0.00 0.00 40 1013.3
20260906180719 99 343 0.9 3.5 0.00 0.00 0.00 40 1013.4
20260906180214 98 265 0.9 3.5 0.00 0.00 0.00 41 1013.5
20260906175712 97 78 0.9 2.6 0.00 0.00 0.00 42 1013.3
20260906175208 97 311 1.7 4.3 0.00 0.00 0.00 43 1013.7
20260906174706 98 324 1.7 2.6 0.00 0.00 0.00 42 1013.6
20260906174200 97 79 1.7 5.2 0.00 0.00 0.00 42 1013.7
20260906173656 98 72 0.9 2.6 0.00 0.00 0.00 41 1013.9
20260906173151 97 100 1.7 3.5 0.00 0.00 0.00 43 1014.0
20260906172651 97 143 0.0 4.3 0.00 0.00 0.00 44 1014.0
20260906172146 95 74 1.7 5.2 0.00 0.00 0.00 46 1014.1
20260906171646 97 103 7.0 7.8 0.00 0.00 0.00 44 1014.2
20260906171141 96 94 1.7 3.5 0.00 0.00 0.00 45 1014.2
20260906170638 97 9 0.9 2.6 0.00 0.00 0.00 44 1014.2
20260906170137 96 351 1.7 1.7 0.00 0.00 0.00 45 1014.5
20260906165633 95 327 0.0 2.6 0.00 0.00 0.00 46 1014.3
20260906165129 95 182 0.9 3.5 0.00 0.00 0.00 46 1014.3
20260906164627 93 7 2.6 6.1 0.00 0.00 0.00 49 1014.4
20260906164123 95 126 3.5 5.2 0.00 0.00 0.00 47 1014.6
20260906163619 96 105 1.7 5.2 0.00 0.00 0.00 47 1014.6
20260906163114 96 8 0.9 2.6 0.00 0.00 0.00 46 1014.6
20260906162611 95 38 0.0 2.6 0.00 0.00 0.00 48 1014.5
20260906162107 95 210 0.0 2.6 0.00 0.00 0.00 47 1014.3
20260906161607 95 6 1.7 3.5 0.00 0.00 0.00 49 1014.4
20260906161106 94 349 2.6 3.5 0.00 0.00 0.00 49 1014.7
20260906160605 94 0 1.7 1.7 0.00 0.00 0.00 50 1014.5
20260906160103 93 262 1.7 2.6 0.00 0.00 0.00 51 1014.5
20260906155601 93 89 1.7 4.3 0.00 0.00 0.00 52 1014.4
20260906155057 93 234 0.0 1.7 0.00 0.00 0.00 52 1014.5
20260906154552 92 28 1.7 5.2 0.00 0.00 0.00 54 1014.4
20260906154051 93 114 3.5 4.3 0.00 0.00 0.00 52 1014.5
20260906153550 93 58 0.9 3.5 0.00 0.00 0.00 52 1014.3
20260906153046 93 48 0.0 1.7 0.00 0.00 0.00 55 1014.3
20260906152545 92 336 0.0 2.6 0.00 0.00 0.00 55 1014.3
20260906152045 91 33 2.6 3.5 0.00 0.00 0.00 55 1014.0
20260906151540 91 13 0.0 3.5 0.00 0.00 0.00 56 1014.0
20260906151036 91 258 0.0 1.7 0.00 0.00 0.00 56 1014.0
20260906150531 91 68 1.7 2.6 0.00 0.00 0.00 57 1014.0
20260906150026 90 104 0.0 2.6 0.00 0.00 0.00 59 1014.0
20260906145525 91 62 0.0 1.7 0.00 0.00 0.00 58 1014.0
20260906145020 90 36 0.0 2.6 0.00 0.00 0.00 59 1014.0
20260906144514 89 75 0.0 1.7 0.00 0.00 0.00 59 1013.9
20260906144010 90 136 0.9 1.7 0.00 0.00 0.00 59 1013.9
20260906143505 89 180 0.0 1.7 0.00 0.00 0.00 61 1014.0
20260906143001 89 108 0.9 2.6 0.00 0.00 0.00 61 1013.9
20260906142501 87 268 0.0 2.6 0.00 0.00 0.00 63 1013.9
20260906141956 87 225 0.0 1.7 0.00 0.00 0.00 64 1014.0
20260906141455 87 245 0.0 1.7 0.00 0.00 0.00 66 1014.0
20260906140950 86 170 0.0 1.7 0.00 0.00 0.00 65 1014.0
20260906140445 86 306 0.0 0.0 0.00 0.00 0.00 68 1014.2
20260906135943 84 321 1.7 1.7 0.00 0.00 0.00 69 1014.1
20260906135441 83 304 0.0 0.9 0.00 0.00 0.00 70 1014.0
20260906134937 83 109 1.7 1.7 0.00 0.00 0.00 72 1014.0
20260906134433 82 137 1.7 1.7 0.00 0.00 0.00 73 1014.1
20260906133933 82 23 0.0 1.7 0.00 0.00 0.00 74 1014.2
20260906133429 82 180 0.0 0.9 0.00 0.00 0.00 75 1014.1
20260906132924 81 25 0.0 0.0 0.00 0.00 0.00 76 1014.1
20260906132419 81 208 0.9 0.9 0.00 0.00 0.00 76 1014.0
20260906131914 81 45 0.0 0.9 0.00 0.00 0.00 78 1014.2
20260906131410 80 356 0.0 1.7 0.00 0.00 0.00 79 1014.0
20260906130906 79 154 0.0 0.9 0.00 0.00 0.00 81 1014.2
20260906130405 79 62 0.0 0.9 0.00 0.00 0.00 82 1013.9
20260906125904 78 44 0.0 0.9 0.00 0.00 0.00 83 1013.7
20260906125401 78 205 0.0 0.9 0.00 0.00 0.00 84 1013.9
20260906124856 78 76 0.0 0.9 0.00 0.00 0.00 85 1013.7
20260906124353 77 343 0.0 0.0 0.00 0.00 0.00 85 1013.6
20260906123852 77 283 0.0 0.0 0.00 0.00 0.00 86 1013.9
20260906123346 77 50 0.0 0.0 0.00 0.00 0.00 86 1013.8
20260906122846 77 72 0.0 0.0 0.00 0.00 0.00 85 1013.6
20260906122341 77 269 0.0 0.0 0.00 0.00 0.00 85 1013.7
20260906121838 77 113 0.0 0.9 0.00 0.00 0.00 84 1013.7
20260906121334 77 309 0.0 0.0 0.00 0.00 0.00 84 1013.6
20260906120830 77 66 0.0 0.0 0.00 0.00 0.00 84 1013.5
20260906120325 77 284 0.0 0.0 0.00 0.00 0.00 84 1013.4
20260906115822 77 299 0.0 0.0 0.00 0.00 0.00 85 1013.3
20260906115317 77 309 0.0 0.0 0.00 0.00 0.00 84 1013.3
20260906114816 77 217 0.0 0.9 0.00 0.00 0.00 84 1013.4
20260906114311 78 13 0.0 0.0 0.00 0.00 0.00 83 1013.3
20260906113806 78 25 0.0 0.0 0.00 0.00 0.00 83 1013.3
20260906113306 78 288 0.0 0.0 0.00 0.00 0.00 83 1013.3
20260906112801 78 102 0.0 0.9 0.00 0.00 0.00 82 1013.0
20260906112257 78 353 0.0 0.0 0.00 0.00 0.00 82 1013.1
20260906111756 78 11 0.0 0.9 0.00 0.00 0.00 82 1013.0
20260906111255 78 217 0.0 0.0 0.00 0.00 0.00 82 1013.0
20260906110751 78 184 0.0 0.9 0.00 0.00 0.00 81 1012.9
20260906110247 78 60 0.0 0.9 0.00 0.00 0.00 81 1013.0
20260906105746 78 235 0.0 0.0 0.00 0.00 0.00 81 1013.0
20260906105242 78 145 0.0 0.9 0.00 0.00 0.00 80 1013.0
20260906104737 78 25 0.0 0.9 0.00 0.00 0.00 80 1013.0
20260906104236 78 52 0.0 0.0 0.00 0.00 0.00 80 1012.7
20260906103734 78 52 0.0 0.0 0.00 0.00 0.00 80 1012.8
20260906103234 79 66 0.0 0.9 0.00 0.00 0.00 80 1012.8
20260906102729 79 147 0.0 0.9 0.00 0.00 0.00 79 1012.7
20260906102228 79 333 0.0 0.0 0.00 0.00 0.00 79 1012.9
20260906101724 79 343 0.0 0.0 0.00 0.00 0.00 78 1012.7
20260906101219 79 44 0.0 0.9 0.00 0.00 0.00 78 1012.8
20260906100714 79 76 0.0 0.0 0.00 0.00 0.00 78 1012.7
20260906100209 80 66 0.0 0.0 0.00 0.00 0.00 78 1012.6
20260906095709 80 352 0.0 0.0 0.00 0.00 0.00 77 1012.8
20260906095204 80 318 0.0 0.9 0.00 0.00 0.00 77 1012.6
20260906094703 80 31 0.0 0.0 0.00 0.00 0.00 77 1012.5
20260906094159 80 255 0.0 0.0 0.00 0.00 0.00 77 1012.6
20260906093655 80 37 0.0 0.0 0.00 0.00 0.00 76 1012.4
20260906093150 80 288 0.0 0.9 0.00 0.00 0.00 75 1012.4
20260906092645 81 55 0.0 0.0 0.00 0.00 0.00 75 1012.4
20260906092144 81 13 0.0 0.0 0.00 0.00 0.00 75 1012.4
20260906091641 81 230 0.0 0.0 0.00 0.00 0.00 74 1012.3
20260906091137 82 284 0.0 0.9 0.00 0.00 0.00 73 1012.2
20260906090633 82 269 0.0 0.9 0.00 0.00 0.00 73 1012.2
20260906090132 82 101 0.0 0.9 0.00 0.00 0.00 72 1012.2
20260906085631 82 117 0.0 0.9 0.00 0.00 0.00 71 1012.1
20260906085132 82 80 1.7 1.7 0.00 0.00 0.00 71 1012.1
20260906084632 82 131 0.9 3.5 0.00 0.00 0.00 71 1012.2
20260906084131 83 116 0.0 1.7 0.00 0.00 0.00 71 1012.2
20260906083626 83 97 1.7 2.6 0.00 0.00 0.00 71 1012.2
20260906083127 83 94 1.7 1.7 0.00 0.00 0.00 71 1012.1
20260906082622 83 65 0.9 1.7 0.00 0.00 0.00 71 1012.0
20260906082118 83 174 0.9 1.7 0.00 0.00 0.00 70 1012.2
20260906081613 82 101 2.6 2.6 0.00 0.00 0.00 71 1012.2
20260906081108 82 29 0.0 0.9 0.00 0.00 0.00 71 1011.9
20260906080605 82 157 0.0 1.7 0.00 0.00 0.00 71 1012.0
20260906075601 83 66 1.7 1.7 0.00 0.00 0.00 70 1012.0
20260906075055 82 358 0.0 1.7 0.00 0.00 0.00 70 1012.0
20260906074550 83 304 0.0 0.0 0.00 0.00 0.00 70 1012.1
20260906074049 82 137 0.0 0.9 0.00 0.00 0.00 70 1012.2
20260906073544 82 89 0.0 0.0 0.00 0.00 0.00 71 1012.3
20260906073040 82 113 0.0 0.9 0.00 0.00 0.00 71 1012.4
20260906072535 82 230 0.0 0.0 0.00 0.00 0.00 71 1012.3
20260906072031 83 230 0.0 0.0 0.00 0.00 0.00 70 1012.4
20260906071527 83 230 0.0 0.0 0.00 0.00 0.00 69 1012.6
20260906071022 83 124 0.0 0.0 0.00 0.00 0.00 68 1012.6
20260906070518 83 37 0.0 0.0 0.00 0.00 0.00 68 1012.6
20260906070014 84 195 0.0 0.0 0.00 0.00 0.00 67 1012.4
20260906065513 84 180 0.0 0.9 0.00 0.00 0.00 67 1012.5
20260906065009 84 309 0.0 1.7 0.00 0.00 0.00 67 1012.4
20260906064505 84 315 0.9 0.9 0.00 0.00 0.00 66 1012.5
20260906063959 85 326 0.0 1.7 0.00 0.00 0.00 64 1012.5
20260906063455 85 89 0.0 1.7 0.00 0.00 0.00 64 1012.3
20260906062955 85 316 0.0 1.7 0.00 0.00 0.00 64 1012.5
20260906062450 85 326 0.0 1.7 0.00 0.00 0.00 64 1012.4
20260906061945 85 138 0.9 2.6 0.00 0.00 0.00 63 1012.5
20260906061441 85 124 0.0 2.6 0.00 0.00 0.00 63 1012.3
20260906060935 85 164 0.9 1.7 0.00 0.00 0.00 63 1012.6
20260906060433 85 135 0.0 1.7 0.00 0.00 0.00 63 1012.6
20260906055929 85 286 0.0 1.7 0.00 0.00 0.00 63 1012.5
20260906055424 84 84 0.0 0.9 0.00 0.00 0.00 64 1012.5
20260906054920 84 70 0.9 0.9 0.00 0.00 0.00 64 1012.4
20260906054414 85 309 0.0 0.0 0.00 0.00 0.00 64 1012.6
20260906053911 85 62 0.0 0.0 0.00 0.00 0.00 63 1012.5
20260906053406 85 76 0.9 1.7 0.00 0.00 0.00 63 1012.5
20260906052902 85 130 0.0 0.0 0.00 0.00 0.00 62 1012.6
20260906052358 86 205 0.0 0.0 0.00 0.00 0.00 62 1012.6
20260906051855 86 72 0.0 1.7 0.00 0.00 0.00 61 1012.4
20260906051354 86 119 1.7 1.7 0.00 0.00 0.00 60 1012.6
20260906050850 86 62 0.0 2.6 0.00 0.00 0.00 60 1012.4
20260906050345 86 77 1.7 2.6 0.00 0.00 0.00 59 1012.5
20260906045844 86 284 0.9 1.7 0.00 0.00 0.00 59 1012.7
20260906045338 86 94 2.6 2.6 0.00 0.00 0.00 59 1012.4
20260906044834 86 116 0.0 0.9 0.00 0.00 0.00 59 1012.6
20260906044334 86 41 0.0 1.7 0.00 0.00 0.00 58 1012.5
20260906043830 87 136 0.0 0.0 0.00 0.00 0.00 58 1012.4
20260906043326 87 27 0.0 1.7 0.00 0.00 0.00 58 1012.5
20260906042826 87 212 0.0 1.7 0.00 0.00 0.00 57 1012.6
20260906042325 87 341 0.0 3.5 0.00 0.00 0.00 57 1012.4
20260906041821 87 80 0.0 1.7 0.00 0.00 0.00 57 1012.6
20260906041316 87 9 0.9 1.7 0.00 0.00 0.00 56 1012.5
20260906040811 87 226 0.0 0.0 0.00 0.00 0.00 56 1012.4
20260906040307 87 29 0.0 0.9 0.00 0.00 0.00 55 1012.4
20260906035802 87 118 0.0 2.6 0.00 0.00 0.00 55 1012.3
20260906035257 88 269 0.0 0.0 0.00 0.00 0.00 55 1012.4
20260906034758 88 98 0.0 1.7 0.00 0.00 0.00 55 1012.5
20260906034258 88 99 1.7 1.7 0.00 0.00 0.00 55 1012.3
20260906033754 88 109 0.0 1.7 0.00 0.00 0.00 55 1012.5
20260906033253 88 74 1.7 1.7 0.00 0.00 0.00 54 1012.4
20260906032749 88 153 0.0 2.6 0.00 0.00 0.00 54 1012.3
20260906032249 88 74 1.7 2.6 0.00 0.00 0.00 54 1012.5
20260906031745 88 28 0.0 1.7 0.00 0.00 0.00 54 1012.5
20260906031241 89 89 0.0 2.6 0.00 0.00 0.00 54 1012.4
20260906030740 89 126 3.5 3.5 0.00 0.00 0.00 53 1012.5
20260906030235 89 69 1.7 2.6 0.00 0.00 0.00 53 1012.5
20260906025735 89 29 0.9 3.5 0.00 0.00 0.00 53 1012.4
20260906025229 89 310 2.6 3.5 0.00 0.00 0.00 52 1012.4
20260906024728 89 314 2.6 5.2 0.00 0.00 0.00 52 1012.3
20260906024227 89 108 3.5 4.3 0.00 0.00 0.00 52 1012.4
20260906023723 89 7 2.6 5.2 0.00 0.00 0.00 52 1012.5
20260906023219 89 84 1.7 3.5 0.00 0.00 0.00 52 1012.1
20260906022714 89 137 1.7 5.2 0.00 0.00 0.00 52 1012.1
20260906022209 90 74 1.7 5.2 0.00 0.00 0.00 52 1012.1
20260906021705 90 45 1.7 3.5 0.00 0.00 0.00 52 1011.8
20260906021204 90 0 1.7 6.1 0.00 0.00 0.00 52 1011.6
20260906020659 90 133 1.7 3.5 0.00 0.00 0.00 52 1011.8
20260906020153 90 2 0.9 2.6 0.00 0.00 0.00 52 1011.6
20260906015648 91 83 1.7 3.5 0.00 0.00 0.00 51 1011.6
20260906015147 91 3 1.7 3.5 0.00 0.00 0.00 50 1011.6
20260906014647 91 357 1.7 6.1 0.00 0.00 0.00 49 1011.5
20260906014143 92 137 2.6 4.3 0.00 0.00 0.00 48 1011.5
20260906013638 93 70 0.9 5.2 0.00 0.00 0.00 47 1011.3
20260906013134 93 41 2.6 4.3 0.00 0.00 0.00 46 1011.3
20260906012633 94 1 3.5 7.0 0.00 0.00 0.00 44 1010.9
20260906012128 95 70 0.0 1.7 0.00 0.00 0.00 41 1010.8
20260906011624 95 241 0.0 1.7 0.00 0.00 0.00 40 1010.5
20260906011124 95 330 1.7 3.5 0.00 0.00 0.00 40 1010.6
20260906010620 95 54 0.0 1.7 0.00 0.00 0.00 40 1010.6
20260906010116 95 22 0.9 1.7 0.00 0.00 0.00 39 1010.6
20260906005616 95 45 1.7 3.5 0.00 0.00 0.00 39 1010.7
20260906005115 96 89 0.0 2.6 0.00 0.00 0.00 38 1010.5
20260906004614 96 306 0.0 2.6 0.00 0.00 0.00 38 1010.6
20260906004109 96 39 0.9 1.7 0.00 0.00 0.00 37 1010.6
20260906003604 96 85 0.0 2.6 0.00 0.00 0.00 38 1010.5
20260906003101 97 40 0.0 2.6 0.00 0.00 0.00 37 1010.4
20260906002601 97 115 0.0 3.5 0.00 0.00 0.00 37 1010.5
20260906002055 97 101 1.7 3.5 0.00 0.00 0.00 37 1010.4
20260906001551 97 37 1.7 2.6 0.00 0.00 0.00 37 1010.5
20260906001051 98 92 1.7 5.2 0.00 0.00 0.00 36 1010.6
20260906000547 98 347 1.7 1.7 0.00 0.00 0.00 36 1010.5
20260906000042 98 67 1.7 3.5 0.00 0.00 0.00 36 1010.4
20260905235541 98 322 0.0 0.9 0.00 0.00 0.00 37 1010.4
20260905235036 98 334 1.7 3.5 0.00 0.00 0.00 35 1010.4
20260905234532 99 176 0.9 1.7 0.00 0.00 0.00 35 1010.3
20260905234027 99 224 0.0 1.7 0.00 0.00 0.00 36 1010.4
20260905233527 99 257 0.9 1.7 0.00 0.00 0.00 35 1010.3
20260905233026 99 261 3.5 3.5 0.00 0.00 0.00 35 1010.3
20260905232522 99 251 0.9 2.6 0.00 0.00 0.00 35 1010.3
20260905232018 100 265 1.7 2.6 0.00 0.00 0.00 35 1010.1
20260905231513 100 264 1.7 1.7 0.00 0.00 0.00 35 1010.3
20260905231009 100 236 0.9 2.6 0.00 0.00 0.00 34 1010.1
20260905230508 100 96 0.0 3.5 0.00 0.00 0.00 34 1010.3
20260905230006 100 266 3.5 3.5 0.00 0.00 0.00 34 1010.5
20260905225501 101 272 1.7 2.6 0.00 0.00 0.00 34 1010.2
20260905224956 101 251 0.9 2.6 0.00 0.00 0.00 34 1010.1
20260905224452 102 288 1.7 1.7 0.00 0.00 0.00 33 1010.2